User: anonymous
Location: Caltech
(34.1382°N, 118.1253°W)
Time: 09:46:23
(UTC-07:00)
Language:

Cosmos 1484 Rocket - Orbit

View from above orbital plane
View from above orbital plane
View from above satellite
View from above satellite

Ground track
Ground track

The orbit data is extracted from the following two-line orbital elements,

1 14208U 83075B   14294.13203514  .00005510  00000-0  36087-3 0  1559
2 14208 097.4116 326.4877 0041131 229.7386 130.0243 15.07423326701171
Epoch (UTC): 21 October 2014 03:10:07
Eccentricity: 0.0041131
inclination: 97.4116°
perigee height: 515 km
apogee height: 572 km
right ascension of ascending node: 326.4877°
argument of perigee: 229.7386°
revolutions per day: 15.07423326
mean anomaly at epoch: 130.0243°
orbit number at epoch: 70117

The dashed part of the orbit path shows where the satellite is in the earth's shadow,  

DLR